Flag for U.S.A. Weather past 2 weeks in Augusta, Maine, U.S.A.

Now
62 °F

Light rain. More clouds than sun.


Feels Like: 62 °F
Forecast: 59 / 65 °F
Wind: 3 mph from North

Location: Augusta State Airport

Current Time: Jul 1, 2015 at 1:21:17 PM

Latest Report: Jul 1, 2015 at 12:53 PM


Visibility: 10 mi

Pressure: 29.80 "Hg

Humidity: 86%

Dew point: 58 °F

Location of AugustaLocation

Historic Weather in Augusta — Graph

°F

Augusta temperature yesterday

Maximum temperature yesterday: 76 °F (at 1:53 PM)
Minimum temperature yesterday: 59 °F (at 1:53 AM)
Average temperature yesterday: 67 °F

Past Weeks' High & Low Weather Summary

 TemperatureHumidityPressure
High77 °F (Jun 24, 2:53 PM)100% (Jun 21, 7:01 AM)30.19 "Hg (Jun 21, 7:01 AM)
Low49 °F (Jun 20, 4:53 AM)28% (Jun 17, 3:53 PM)29.68 "Hg (Jun 21, 4:53 PM)
Average63 °F71%29.94 "Hg
* Reported Jun 16 11:53 AM — Jul 1 11:53 AM, Augusta, Weather by CustomWeather, © 2015

Note: Actual official high and low records may vary slightly from our data, if they occured in-between our weather recording intervals... More about our weather records

Advertising

Augusta weather history for previous 24 hours

 ConditionsComfort  
Time TempWeatherWind HumidityBarometerVisibility
11:53 AM
Wed, Jul 1
62 °FOvercast.6 mph86%29.81 "Hg10 mi
10:53 AM62 °FLight rain. Low clouds.8 mph90%29.90 "Hg9 mi
9:53 AM62 °FLight rain. Fog.6 mph93%29.93 "Hg6 mi
8:53 AM62 °FLow clouds.6 mph90%29.90 "Hg10 mi
7:53 AM61 °FPartly sunny.7 mph93%29.91 "Hg10 mi
6:53 AM60 °FPartly sunny.5 mph93%29.90 "Hg10 mi
5:53 AM60 °FPassing clouds.5 mph93%29.91 "Hg10 mi
4:53 AM60 °FPassing clouds.3 mph90%29.93 "Hg10 mi
3:53 AM61 °FPassing clouds.3 mph90%29.93 "Hg10 mi
2:53 AM61 °FPassing clouds.3 mph87%29.95 "Hg10 mi
1:53 AM62 °FPassing clouds.3 mph83%29.96 "Hg10 mi
11:53 PM
Tue, Jun 30
63 °FLight rain. Mostly cloudy.3 mph78%29.98 "Hg10 mi
10:53 PM64 °FOvercast.5 mph75%29.99 "Hg10 mi
9:53 PM65 °FPassing clouds.5 mph73%29.98 "Hg10 mi
8:53 PM66 °FPassing clouds.6 mph70%29.96 "Hg10 mi
7:53 PM69 °FSunny.8 mph66%29.95 "Hg10 mi
6:53 PM71 °FSunny.6 mph66%29.95 "Hg10 mi
5:53 PM74 °FSunny.7 mph62%29.96 "Hg10 mi
4:53 PM75 °FScattered clouds.6 mph55%29.96 "Hg10 mi
3:53 PM75 °FScattered clouds.6 mph54%29.96 "Hg10 mi
2:53 PM75 °FSunny.No wind43%29.96 "Hg10 mi
1:53 PM76 °FPassing clouds.5 mph47%29.97 "Hg10 mi
Weather by CustomWeather, © 2015

See weather overviewHow to use our weather pages